Theta_e
288 288 287 287 287 287 287 287 287 287 287 287 287 287 287 287 287 286 286 286 286 286 286 286 286 286 286 286 286 287 287 288 289 290 290 290 290 291 291 291 292 292 292 292 293 293 293 294 294 295 296 297 298 298 299 299 300 301 302 303 304 305 306 306 307 307 308 310 311 312 312 312 312 310 309 307 305 304 304 304 306 308 310 312 315 317
287 287 287 287 287 287 287 287 287 287 287 287 287 287 287 287 286 286 286 286 286 286 286 286 286 286 286 286 286 286 287 288 288 289 289 289 289 290 290 291 291 292 292 292 293 293 293 294 294 294 295 296 297 298 298 298 299 299 300 301 303 304 305 306 307 307 308 308 309 310 311 312 312 311 310 308 306 305 304 304 305 307 309 311 313 316
287 287 287 287 287 287 287 287 287 287 287 287 287 287 287 286 286 286 286 286 286 286 286 286 286 286 286 286 286 286 287 287 288 288 288 288 288 289 289 290 291 291 292 292 292 293 293 294 294 295 296 296 297 298 298 298 298 299 299 300 301 302 303 305 306 307 307 308 308 309 310 311 311 311 310 309 307 305 304 304 304 306 308 310 312 315
287 287 287 287 287 287 287 287 287 287 286 286 286 286 286 286 286 286 286 286 286 286 286 286 286 286 286 286 286 286 287 288 288 288 288 287 287 288 289 290 290 291 291 291 292 292 293 293 294 294 295 296 296 296 296 297 297 298 298 298 299 300 301 302 303 304 305 307 308 309 310 310 311 311 310 309 308 307 305 304 304 305 306 309 311 313
287 286 286 286 286 286 286 286 286 286 286 286 286 286 286 286 286 286 286 286 286 286 286 286 286 286 286 286 286 286 287 287 288 288 287 287 287 288 288 289 290 290 291 291 291 292 292 292 293 293 294 294 294 295 295 295 295 296 296 297 297 298 298 299 300 300 302 304 306 307 308 309 310 310 310 309 309 307 306 305 304 304 305 307 309 312
286 286 286 286 286 286 286 286 286 286 286 286 285 285 285 285 285 285 285 285 285 285 285 285 285 286 286 286 286 286 286 287 287 287 287 287 287 288 288 289 289 290 290 290 291 291 291 291 292 292 292 292 292 292 293 293 293 294 295 295 296 297 297 297 297 298 299 301 304 305 306 307 308 309 309 309 309 308 307 305 304 304 304 306 308 310
286 286 286 285 285 285 285 285 285 285 285 285 285 285 285 285 285 285 285 285 285 285 285 285 285 285 285 286 286 286 286 286 286 286 287 287 287 288 288 289 289 289 289 290 290 290 291 291 291 291 291 291 291 291 291 291 292 292 293 294 294 295 296 296 297 297 297 298 300 303 304 305 306 307 308 308 308 308 307 306 305 304 304 306 307 309
285 285 285 285 285 285 285 285 285 285 285 285 285 285 285 285 285 285 285 285 285 285 285 285 285 285 285 285 285 286 286 286 286 286 286 287 287 288 288 288 289 289 289 289 289 289 290 290 290 290 290 290 290 290 291 291 291 291 292 292 293 294 295 295 296 296 296 297 298 299 301 303 304 305 306 307 307 307 307 306 305 305 304 305 306 308
285 285 285 285 285 285 285 285 285 285 285 285 285 285 285 285 285 285 285 285 285 285 285 285 285 285 285 285 285 285 285 286 286 286 286 287 287 287 288 288 288 288 288 289 289 289 289 289 289 289 289 290 290 290 291 291 291 291 291 292 292 293 294 295 295 296 296 296 297 297 298 300 302 304 305 305 306 306 307 307 306 305 305 305 306 307
285 285 285 285 285 285 285 285 285 285 286 286 285 285 285 285 285 285 285 285 285 285 285 285 285 285 285 285 285 285 285 286 286 286 286 286 287 287 287 287 287 288 288 288 288 288 288 288 288 288 289 289 290 290 290 290 291 291 291 291 292 292 293 294 295 295 296 296 296 297 297 297 299 301 302 303 304 305 306 306 306 306 306 305 305 306
286 286 286 286 286 286 286 286 286 286 286 286 285 285 285 285 285 285 285 285 285 285 285 285 285 285 285 285 285 285 285 285 286 286 286 286 286 286 287 287 287 287 287 287 288 288 287 287 288 288 288 289 289 289 289 290 290 290 290 291 291 292 293 294 294 295 295 296 296 296 296 296 297 298 299 301 302 303 304 305 305 306 306 305 305 306
286 286 286 286 286 286 286 286 286 286 286 285 285 285 285 285 285 285 285 285 285 285 285 285 285 285 285 285 285 285 285 286 286 286 286 286 286 286 286 286 286 287 287 287 287 287 287 287 287 288 288 288 288 288 289 289 289 289 290 291 291 292 292 293 294 294 295 295 296 296 296 296 296 296 297 298 300 301 302 302 304 305 305 305 305 305
287 287 287 287 287 286 286 286 286 286 285 285 285 285 285 285 285 285 285 285 285 285 285 285 285 285 285 285 285 285 286 286 286 286 286 286 286 286 286 286 286 287 287 287 287 287 287 287 287 287 288 288 288 288 288 288 289 289 290 290 291 291 292 292 293 293 294 295 295 296 296 296 295 295 296 297 298 299 299 300 302 303 304 305 305 305
288 287 287 287 287 286 286 286 286 285 285 285 285 285 285 285 285 285 285 285 285 285 285 285 285 285 285 285 285 286 286 286 286 286 286 286 286 286 286 286 287 287 287 287 287 287 287 287 287 287 287 287 288 288 288 288 289 289 290 290 291 291 291 292 292 293 293 294 294 295 295 295 295 295 295 296 296 297 297 298 300 301 303 304 305 305
288 287 287 286 286 286 286 286 285 285 285 285 285 285 285 285 285 285 285 285 285 285 285 285 285 285 285 285 286 286 286 286 286 286 286 286 286 287 287 287 287 287 287 287 287 287 287 287 287 287 287 287 287 288 288 288 289 289 290 290 290 291 291 291 291 292 293 293 294 294 295 295 295 295 295 295 296 296 296 297 298 299 301 303 304 305
287 287 286 286 286 285 285 285 285 285 285 285 285 285 285 285 285 285 285 285 285 285 285 285 285 286 286 286 286 286 286 286 286 286 287 287 287 287 287 287 287 287 287 287 287 287 287 287 287 287 287 287 288 288 288 289 289 289 290 290 290 290 291 291 291 291 292 292 293 294 294 294 294 294 294 295 295 296 296 296 296 297 299 302 303 305
286 286 285 285 285 285 285 285 285 285 285 285 285 285 285 285 285 285 285 285 285 286 286 286 286 286 286 286 286 286 286 287 287 287 287 287 287 287 287 287 287 287 287 287 287 287 287 287 287 287 287 287 288 288 288 289 289 289 290 290 290 290 290 291 291 291 291 292 292 293 293 293 294 294 294 294 295 295 296 296 296 296 298 301 303 305
285 285 285 285 285 285 285 285 285 285 285 286 286 286 286 286 286 286 286 286 286 286 286 286 286 286 287 287 287 287 287 287 287 287 287 287 287 287 287 287 287 287 287 287 287 287 287 287 287 287 287 288 288 288 288 289 289 289 290 290 290 290 290 291 291 292 292 292 292 292 292 292 293 293 293 294 294 295 296 296 295 295 297 299 302 304
285 285 285 285 285 285 285 285 285 285 286 286 286 286 286 286 286 286 286 286 286 287 287 287 287 287 287 287 287 287 287 287 287 287 287 287 287 287 287 287 287 287 287 287 287 287 287 287 287 287 287 287 288 288 288 289 289 289 290 290 290 290 291 291 292 292 293 292 292 292 292 292 292 293 293 293 294 295 295 296 295 295 295 297 300 302
285 285 285 285 285 285 285 285 286 286 286 286 286 286 286 286 286 286 287 287 287 287 287 287 287 287 287 287 288 288 287 287 287 287 287 288 288 288 287 287 287 287 287 287 287 287 287 287 287 287 287 287 288 288 288 289 289 289 290 290 290 290 291 292 292 293 293 293 293 293 293 293 293 293 293 293 294 294 295 295 295 294 294 296 298 300
285 285 285 285 285 285 286 286 286 286 286 286 286 286 286 287 287 287 287 287 287 287 287 287 287 287 287 288 288 288 287 287 287 287 288 288 288 287 287 287 287 287 287 286 286 286 287 287 287 287 287 287 288 288 288 289 289 289 290 290 290 291 291 292 293 293 293 293 293 294 294 294 294 294 293 293 294 294 295 295 295 294 293 295 297 299
284 284 285 285 285 286 286 286 286 287 287 287 287 287 287 287 287 287 287 287 286 286 286 287 287 287 288 288 287 287 287 287 287 288 288 288 287 287 286 286 286 286 286 286 286 286 286 287 287 287 287 288 288 288 288 289 289 289 290 290 290 291 292 292 292 292 292 292 293 293 294 294 294 294 294 294 294 294 295 295 294 293 293 294 297 299
285 285 285 286 286 286 286 287 287 287 287 287 287 287 287 287 287 286 286 286 286 286 287 287 288 288 287 287 287 287 287 287 287 287 287 287 287 286 286 286 286 286 286 286 286 286 287 287 287 287 287 288 288 288 288 289 289 289 290 290 291 291 292 292 292 291 291 291 292 293 293 294 295 295 295 295 294 294 295 295 294 293 293 294 297 300
286 286 286 287 287 287 287 287 287 287 287 286 286 286 286 286 286 286 286 286 286 287 287 288 287 287 286 286 286 286 287 287 287 287 286 286 286 286 286 286 286 286 286 286 286 286 287 287 287 287 287 288 288 288 288 289 289 290 290 290 291 291 291 291 291 291 291 291 292 292 293 294 294 295 296 295 295 295 295 295 294 293 293 295 298 301
286 287 287 288 288 287 287 287 286 286 286 285 285 285 285 285 285 286 286 287 287 287 287 287 286 286 286 286 286 286 286 286 286 286 286 286 286 286 286 286 286 286 287 286 286 286 287 287 287 287 287 288 288 288 288 289 289 290 290 290 291 291 291 291 290 290 291 291 291 291 292 292 293 294 296 296 296 296 295 295 294 293 293 296 299 302
287 288 288 287 287 286 286 286 286 285 285 285 285 285 285 285 286 286 286 287 287 287 286 286 286 286 286 286 286 286 286 286 286 286 286 286 286 286 286 286 286 286 286 286 286 286 287 287 287 287 287 287 288 288 288 289 289 289 290 290 291 290 290 290 290 290 290 291 291 291 291 291 291 293 295 296 296 296 296 295 294 293 294 296 298 301
287 286 286 285 285 285 285 284 284 284 284 284 284 284 285 285 286 286 286 286 286 286 286 286 286 286 286 286 286 286 286 286 286 286 286 286 286 286 286 286 286 286 286 286 286 287 287 287 287 287 287 287 287 288 288 289 289 289 289 290 289 289 289 289 289 289 290 290 291 291 290 290 290 291 293 295 296 297 296 295 294 293 294 296 298 300
285 284 284 284 284 284 283 283 283 283 283 283 284 284 284 285 285 285 285 285 285 285 286 286 286 286 286 287 287 286 286 286 286 286 286 286 286 286 286 286 286 286 286 286 286 286 286 286 286 286 286 287 287 287 288 288 288 288 288 288 287 287 287 288 288 289 290 290 290 290 290 289 290 291 292 293 295 297 297 296 295 294 294 296 297 299
283 283 283 282 282 282 282 282 282 282 282 282 283 284 284 285 285 285 285 285 285 285 285 285 286 286 286 286 286 286 286 286 286 286 285 285 285 285 285 285 286 286 286 286 286 286 286 285 286 286 286 286 287 287 287 287 287 287 287 287 286 287 287 288 288 289 289 290 290 290 290 289 289 290 291 292 294 296 297 297 296 295 295 297 298 298
282 282 282 282 282 281 281 281 281 281 282 282 283 283 284 284 284 284 285 285 285 285 284 284 284 285 285 285 286 286 286 285 285 285 285 285 285 285 285 286 286 286 286 286 286 285 285 285 285 285 286 286 286 286 286 286 286 286 286 286 286 286 287 287 288 288 289 289 290 290 290 289 289 289 290 291 293 295 296 297 297 297 297 298 298 298
281 281 281 281 281 281 281 281 281 281 282 282 283 283 283 284 284 284 284 284 284 283 283 283 283 284 284 285 285 285 285 285 285 285 285 285 286 286 286 286 286 285 285 285 285 285 285 285 285 285 285 285 285 285 285 285 285 286 286 286 286 286 287 287 288 288 288 289 289 290 290 289 289 289 290 291 292 293 295 297 298 299 299 299 298 298
280 280 280 280 280 280 281 281 281 281 282 282 282 283 283 283 283 283 282 282 281 281 282 282 283 283 284 284 284 285 285 284 284 285 285 286 286 286 285 285 285 284 284 284 285 285 285 285 285 285 285 285 285 285 285 285 285 285 286 286 286 286 287 287 287 288 288 288 289 289 290 289 289 289 289 291 292 293 294 296 298 299 299 299 298 298
280 280 280 280 280 280 281 281 281 281 282 282 282 283 283 282 282 281 280 280 280 280 281 282 282 283 283 284 284 284 284 284 285 285 285 286 285 285 285 284 284 284 284 284 284 285 285 285 285 285 285 285 285 285 285 285 285 285 286 286 286 286 286 287 287 287 288 288 289 289 290 289 289 289 289 290 291 292 294 295 297 298 299 299 299 298
279 279 280 280 280 280 281 281 281 281 281 282 282 282 281 281 280 279 279 279 279 280 280 281 282 282 283 283 284 284 284 284 284 285 285 285 284 284 284 284 283 283 283 283 284 284 284 284 284 284 284 284 284 285 285 285 285 285 286 286 286 286 286 287 287 287 287 288 288 289 289 290 289 289 289 291 292 292 293 294 295 297 298 299 299 299
279 279 280 280 280 280 280 280 280 280 280 280 280 280 280 279 279 279 279 279 279 280 280 281 281 282 282 283 283 283 283 283 283 283 283 283 283 283 283 283 283 283 283 283 283 284 284 284 284 284 284 284 284 285 285 285 285 285 286 286 286 286 286 287 287 287 287 288 289 289 289 290 290 290 290 291 292 292 293 294 295 296 297 298 299 299
279 279 280 280 280 280 280 280 279 279 279 279 279 279 279 279 279 279 279 279 279 280 280 281 281 281 281 282 282 282 282 282 282 282 282 282 282 282 283 283 283 283 283 283 283 284 284 284 284 284 284 285 285 285 285 285 285 285 286 286 286 286 286 286 287 287 288 288 289 289 289 289 290 290 291 292 292 293 293 294 294 295 295 297 298 299
279 279 280 280 280 279 279 279 279 279 279 279 279 279 279 279 279 278 279 279 279 280 280 280 280 280 280 280 280 280 280 280 280 281 281 281 281 282 282 282 282 282 283 283 283 283 284 284 284 284 284 285 285 285 285 285 285 285 286 286 286 286 286 286 287 287 288 288 289 289 289 289 290 290 291 292 292 293 293 294 294 294 294 295 296 297
279 279 279 279 279 279 279 279 279 279 279 279 279 279 279 279 279 278 279 279 279 280 280 279 279 279 279 279 279 279 279 280 280 280 280 281 281 281 281 281 282 282 282 283 283 283 283 284 284 284 284 285 285 285 285 285 285 285 285 286 286 286 286 287 287 287 288 288 289 289 289 289 290 290 291 291 292 293 293 294 294 294 294 294 295 295
279 279 279 279 279 279 279 279 279 279 279 279 279 279 279 279 279 279 279 279 279 279 279 279 279 279 279 279 279 279 279 280 280 280 280 280 281 281 281 281 281 282 282 282 282 283 283 283 284 284 284 285 285 285 285 285 285 285 286 286 286 286 287 287 287 288 288 288 288 289 289 290 290 290 291 291 292 293 293 293 294 294 294 294 295 295
280 280 279 279 279 279 279 279 279 279 279 279 279 279 279 279 279 279 279 279 279 278 278 278 279 279 279 279 279 279 280 280 280 280 280 280 281 281 281 281 281 281 282 282 282 283 283 283 283 284 284 285 285 285 285 285 286 286 286 286 286 287 287 287 287 288 288 288 289 289 289 290 290 290 291 291 292 293 293 293 293 293 294 294 295 295
280 280 280 279 279 279 279 279 279 279 279 279 279 279 279 279 279 279 279 278 278 278 278 279 279 279 279 279 280 280 280 280 280 280 280 280 281 281 281 281 281 282 282 282 283 283 283 283 284 284 284 284 285 285 285 286 286 286 286 287 287 287 287 287 287 288 288 288 289 289 290 290 290 290 291 291 292 292 292 292 292 293 294 294 295 295
280 280 279 279 279 279 279 279 279 279 279 279 279 279 279 279 279 279 279 278 278 278 278 279 279 279 280 280 280 280 280 280 280 280 280 280 281 281 281 282 282 282 282 282 283 283 283 283 284 284 284 285 285 285 285 286 286 286 287 287 287 287 287 287 288 288 288 289 289 289 289 290 290 290 291 292 292 292 291 291 291 292 293 294 295 295
280 280 279 279 279 279 279 279 280 280 280 280 279 279 279 279 279 279 279 279 279 279 279 279 279 280 280 280 280 280 280 280 280 280 280 280 281 281 282 282 282 283 283 283 283 283 284 284 284 284 285 285 285 285 285 286 286 286 287 287 287 287 288 288 288 288 288 288 289 289 289 290 290 291 291 291 291 291 291 291 291 292 293 294 295 295
280 280 279 280 280 280 280 280 280 280 280 280 279 279 279 279 279 279 279 279 279 279 279 279 280 280 280 280 280 280 280 280 280 280 280 281 281 281 282 282 283 283 283 283 283 284 284 284 284 285 285 285 285 285 286 286 286 286 287 287 287 287 288 288 288 288 288 288 289 289 289 290 290 291 291 291 291 291 290 291 291 292 293 294 295 295
280 280 280 280 280 280 280 280 280 280 280 279 279 279 279 279 279 279 279 279 279 279 279 280 280 280 280 280 280 280 280 280 280 280 280 281 281 282 282 282 283 283 283 284 284 284 285 285 285 285 285 285 285 285 286 286 286 287 287 287 288 288 288 288 288 288 289 289 289 289 290 290 290 290 290 290 290 290 290 291 291 292 293 294 295 295
280 280 280 280 280 280 280 280 280 280 280 279 279 279 279 279 279 279 279 279 279 279 280 280 280 280 280 280 280 280 280 280 280 280 281 281 281 282 282 282 283 283 284 284 285 285 285 285 285 285 285 285 285 286 286 286 287 287 287 288 288 288 288 288 289 289 289 289 289 289 289 289 289 289 289 290 290 290 291 291 291 292 293 294 295 295
280 280 281 281 281 280 280 280 280 280 280 280 280 280 279 279 279 279 279 279 279 280 280 280 280 280 280 280 280 280 280 280 280 280 281 281 281 282 282 283 283 283 284 284 285 285 285 285 285 285 285 285 286 286 286 286 287 287 288 288 288 289 289 289 289 289 289 289 289 289 288 288 289 289 289 290 290 290 291 291 292 293 293 294 294 294
281 281 281 281 281 280 280 280 280 280 280 280 280 280 280 280 279 279 280 280 280 280 280 280 280 280 280 280 280 280 280 280 280 281 281 281 282 282 282 283 283 283 284 284 284 284 284 284 284 284 285 285 285 286 286 286 287 287 288 288 289 289 289 289 289 289 289 289 289 289 289 289 289 289 289 290 290 291 291 292 292 293 293 294 294 294
281 281 281 281 281 280 280 280 280 280 280 280 280 280 280 280 280 280 280 280 280 279 280 280 280 280 280 280 280 280 280 280 281 281 281 282 282 282 282 282 283 283 284 284 284 284 284 284 284 285 285 285 285 286 286 287 287 288 288 288 288 289 289 289 289 289 289 289 289 290 289 289 289 290 290 290 291 291 292 292 293 293 293 293 293 293
281 281 281 281 281 280 280 280 280 280 280 280 280 280 280 280 280 280 280 279 279 280 280 280 280 280 279 280 280 280 280 280 281 281 282 282 282 282 282 282 283 283 284 284 284 283 284 284 284 285 285 285 286 286 286 287 287 288 288 288 288 288 289 289 289 289 289 289 289 289 289 290 290 290 290 291 291 292 292 293 293 293 293 293 293 293
281 281 281 281 281 281 280 280 280 280 280 280 280 280 280 280 280 280 280 280 280 280 280 280 279 279 279 279 280 280 280 281 281 282 282 282 282 282 282 282 283 283 284 283 283 283 284 284 284 285 285 285 286 286 287 287 287 287 287 288 288 288 288 288 288 288 288 288 289 289 289 290 290 290 291 292 292 293 293 293 293 293 293 293 293 293
Wind_Speed
15 17 18 18 19 19 19 19 21 22 24 25 25 26 26 27 28 28 28 27 28 28 28 28 29 29 29 30 30 30 29 29 29 30 30 31 31 32 32 32 32 32 31 31 32 32 32 33 33 33 33 34 33 33 33 33 32 32 32 32 33 33 33 33 33 34 34 33 33 32 32 32 33 35 36 36 36 35 35 35 35 35 35 34 32 30
16 17 17 18 18 19 19 19 20 22 23 24 25 25 25 26 27 27 27 26 26 26 26 27 27 28 28 29 29 29 29 28 29 30 31 31 32 32 32 32 32 31 31 31 32 32 32 32 32 32 33 32 32 32 32 32 32 32 32 31 31 31 31 32 32 33 34 34 34 34 33 33 34 35 36 35 35 35 35 35 34 33 33 33 32 31
17 18 18 18 18 18 18 19 20 21 22 23 23 23 24 25 25 25 25 25 25 24 24 25 26 26 27 27 28 28 27 28 28 30 31 31 32 32 32 32 32 31 31 31 32 32 32 32 32 32 32 32 31 31 31 31 31 31 32 31 31 30 30 29 30 30 32 33 34 34 34 35 35 35 35 35 35 35 35 35 34 32 31 31 31 30
17 18 18 19 18 17 17 19 20 21 21 21 22 22 23 24 24 24 24 24 24 24 23 23 24 25 25 26 26 26 26 26 27 29 30 31 31 31 31 31 31 31 32 32 32 33 33 32 32 32 32 32 31 31 31 31 31 32 32 33 33 32 31 29 29 29 29 29 30 32 34 35 35 35 34 34 34 34 35 35 34 33 31 30 30 30
17 17 18 18 18 17 17 18 19 20 20 20 21 21 22 23 23 23 23 23 23 23 23 23 23 23 24 25 25 25 24 25 26 28 29 29 29 30 30 31 31 32 32 33 33 33 33 33 32 33 33 32 32 32 32 33 33 33 33 34 34 34 33 32 32 31 30 28 27 28 30 32 33 34 34 34 35 35 35 35 35 34 32 30 30 30
16 16 17 17 17 17 18 18 19 19 20 20 20 21 22 22 22 22 22 22 22 23 23 23 23 23 23 24 24 24 24 25 26 26 27 27 27 28 28 29 30 31 33 33 33 33 33 33 33 33 33 33 34 34 34 35 35 35 34 34 34 34 33 34 34 35 34 31 29 27 27 28 30 31 33 34 36 36 36 36 36 34 32 30 29 30
16 16 17 17 17 17 17 18 18 19 19 20 21 22 22 21 21 21 21 21 22 23 23 23 23 23 23 23 23 24 24 25 26 25 25 25 25 26 27 28 29 31 32 33 33 34 34 34 34 34 34 34 34 34 34 35 35 35 35 35 34 34 34 33 34 35 35 34 32 29 27 26 26 27 29 32 35 36 37 37 36 35 33 30 29 30
17 17 17 17 17 17 17 17 17 18 19 20 22 23 23 23 22 21 21 21 22 22 23 23 23 23 23 23 23 24 25 25 25 24 24 24 24 25 26 27 29 30 31 32 33 34 34 35 35 35 34 34 34 34 33 33 34 34 34 34 34 34 34 33 33 33 34 34 34 32 30 27 25 24 25 28 31 33 35 37 37 36 34 31 30 29
17 17 17 17 17 18 18 18 18 18 20 20 21 22 23 24 23 23 22 22 22 22 23 23 24 24 23 23 24 24 24 23 23 23 23 23 24 25 25 27 28 29 30 31 32 33 35 35 36 35 34 34 33 33 32 32 32 32 32 32 32 33 33 33 32 32 32 33 33 33 33 30 27 25 24 25 27 29 32 34 36 36 35 33 31 30
16 17 17 17 16 16 17 18 19 19 20 20 20 20 20 22 23 24 24 24 23 23 23 22 23 25 25 25 24 24 24 24 23 22 22 23 24 25 25 26 27 28 29 31 32 33 35 35 36 35 34 34 33 32 32 31 31 31 31 31 31 32 32 32 32 32 32 31 31 32 33 32 31 28 25 24 25 26 29 31 34 36 36 34 32 31
16 16 16 16 16 16 16 18 19 20 20 21 20 19 18 18 20 22 24 25 26 25 24 24 23 24 25 26 26 25 24 24 24 23 23 23 24 25 25 25 26 27 29 30 32 33 35 36 36 35 34 34 33 32 32 32 32 31 31 31 31 31 31 32 32 32 32 31 31 31 31 32 32 31 29 26 25 25 26 29 31 34 35 35 34 32
15 15 15 15 16 16 17 18 19 20 20 19 19 19 19 19 19 20 22 24 25 26 26 26 25 24 25 26 26 25 24 24 24 24 24 25 25 25 25 26 26 27 29 30 31 33 35 36 35 34 33 33 32 32 32 33 32 32 32 32 31 31 32 32 32 32 32 31 31 31 31 31 32 32 31 29 27 26 26 27 29 32 33 34 34 33
14 14 14 15 16 17 17 18 19 19 18 18 18 18 19 21 21 21 22 23 24 25 26 27 27 26 25 25 25 25 24 25 25 25 24 24 24 25 26 27 27 27 28 30 32 34 35 35 35 34 33 32 33 33 33 33 33 32 32 32 32 32 32 33 33 33 32 32 32 31 31 31 31 32 32 31 30 29 28 28 29 30 31 32 33 33
14 14 15 16 17 17 18 18 18 18 17 17 18 19 20 22 22 22 22 23 24 25 26 26 26 27 26 24 23 23 24 25 25 24 24 24 25 26 26 27 27 27 28 29 32 33 34 34 33 32 32 32 34 34 34 34 33 33 32 33 33 33 33 33 33 33 33 32 32 32 31 31 31 32 32 32 31 31 31 30 30 29 29 30 32 32
14 15 15 15 16 17 17 18 18 18 18 19 19 21 22 22 21 21 22 23 25 26 26 26 27 27 25 23 22 22 23 24 23 23 25 26 26 26 27 27 27 27 27 29 30 32 33 32 32 32 32 33 34 34 34 33 33 34 34 34 34 34 34 34 33 33 33 32 32 32 32 31 31 31 31 31 31 32 32 33 32 31 29 29 30 31
15 15 15 15 16 17 17 17 18 18 19 20 20 20 21 21 21 21 21 22 24 25 24 24 24 25 25 24 22 22 23 24 23 23 25 27 27 27 27 27 27 26 27 28 29 31 32 32 32 31 32 32 33 33 33 34 34 35 35 35 35 34 34 34 34 33 33 32 32 32 32 32 32 31 31 31 31 32 32 34 34 33 31 29 28 29
15 15 15 15 16 17 18 18 18 18 19 20 20 20 20 21 21 22 22 23 23 22 21 20 16 14 17 24 25 22 22 24 24 24 25 27 28 28 27 26 26 26 27 27 29 30 32 32 31 31 32 32 33 33 34 35 35 36 36 36 35 35 34 34 34 33 33 32 32 32 32 32 32 31 31 31 31 31 32 34 35 35 33 30 28 27
15 15 15 15 16 17 18 18 18 18 18 19 20 21 21 22 22 22 22 22 21 20 20 20 17 13 12 19 24 24 23 24 24 24 25 26 27 28 27 26 25 25 26 27 28 29 31 31 31 32 32 33 33 34 35 35 36 36 36 36 36 36 35 35 34 33 33 32 32 32 32 32 32 32 31 31 30 31 32 33 35 35 34 31 28 27
16 16 15 15 16 17 17 18 18 18 18 19 21 22 23 24 23 23 23 22 20 20 20 20 20 20 20 23 25 26 24 24 24 24 24 25 26 27 25 24 24 24 26 27 28 29 30 32 33 33 33 34 35 35 35 36 36 36 36 36 36 36 36 35 34 33 32 31 31 32 32 32 32 31 31 30 30 30 31 32 34 36 35 33 29 27
17 16 16 16 17 17 18 18 18 18 19 20 21 22 23 23 23 22 22 22 20 19 19 20 21 23 25 26 26 25 24 24 24 23 22 23 24 24 24 23 24 25 26 27 28 29 30 31 33 34 34 35 35 35 35 36 36 36 36 36 36 36 36 35 33 31 30 30 30 30 31 31 31 31 30 30 30 30 31 32 34 36 36 34 31 28
17 17 17 17 18 18 19 19 19 20 21 22 22 22 22 22 21 21 21 21 21 22 22 22 24 25 25 24 23 23 24 24 23 21 19 19 21 22 23 23 24 25 26 27 28 29 30 32 33 33 34 34 35 35 36 36 36 36 36 35 35 35 34 33 31 29 29 29 29 29 29 30 30 30 30 30 29 30 30 31 33 35 36 34 32 29
19 19 20 20 20 20 20 20 21 21 21 21 21 20 20 21 21 21 23 24 24 24 24 24 26 27 25 23 23 25 25 23 22 20 16 15 18 22 23 24 24 24 25 27 28 29 30 32 33 34 34 34 34 35 36 36 36 36 35 34 34 33 31 29 28 28 28 28 28 28 28 28 29 29 30 29 29 30 30 31 33 35 35 34 32 29
22 22 23 23 23 22 21 21 21 21 21 21 20 20 21 22 23 24 25 25 25 26 26 27 27 26 24 24 24 24 23 21 20 18 15 12 15 22 24 25 23 23 24 26 27 28 30 30 32 33 34 33 33 34 35 36 35 35 34 33 32 30 29 28 28 28 29 29 28 28 28 28 28 28 29 29 29 30 30 31 33 34 34 33 31 28
23 24 24 23 21 20 20 20 21 22 22 23 23 24 25 25 26 27 27 27 28 28 28 27 26 24 23 23 23 23 21 19 18 16 14 13 17 22 24 24 22 22 24 26 27 28 29 30 32 33 32 32 33 34 34 34 34 33 32 31 30 29 28 29 29 30 30 29 29 28 29 29 29 29 28 28 29 30 30 31 32 33 33 32 29 26
23 22 21 20 19 19 21 22 23 24 24 24 25 26 26 27 27 27 27 27 26 25 23 22 21 21 22 23 22 21 20 18 17 16 15 16 18 22 24 23 21 20 23 26 28 29 29 30 31 31 31 32 32 33 33 32 31 30 29 29 28 29 30 31 32 31 30 29 29 29 29 30 31 30 28 27 28 29 30 30 31 32 32 30 27 25
20 19 19 19 20 21 23 24 24 25 25 25 25 25 25 26 26 26 25 22 20 19 19 19 18 19 21 20 20 20 19 18 17 17 16 16 17 20 22 22 20 20 23 26 29 30 29 28 29 29 30 31 31 31 30 30 29 29 28 28 29 31 33 34 33 31 30 28 28 28 29 30 31 31 29 26 26 27 29 30 31 31 30 29 27 26
17 17 18 20 21 23 24 24 25 25 25 25 24 24 24 25 25 23 19 17 17 18 18 17 15 15 18 18 19 19 20 18 17 16 16 16 16 18 20 21 21 22 24 26 28 28 27 27 27 28 29 30 29 28 28 28 28 29 29 31 33 35 35 34 32 29 28 27 27 28 29 31 32 31 30 28 25 25 27 29 29 29 28 28 27 27
16 18 20 21 22 23 23 24 24 24 24 24 23 22 22 23 22 19 18 18 18 18 18 16 13 12 13 15 18 20 21 19 17 16 16 16 15 17 20 22 22 22 22 24 26 27 27 27 26 27 27 27 27 27 27 27 28 30 33 35 37 37 36 33 30 27 26 26 27 28 29 31 31 31 31 29 26 24 25 27 27 27 26 26 26 26
21 22 23 23 23 23 24 24 24 24 23 22 21 20 19 20 20 19 19 19 19 18 18 18 17 15 15 17 20 21 20 18 16 16 17 16 16 18 21 21 20 20 21 23 25 27 27 27 26 25 25 25 26 26 28 29 31 33 35 36 37 36 34 32 29 26 25 25 26 27 28 29 30 30 30 30 29 25 23 23 25 25 25 25 25 24
25 26 25 25 24 24 24 24 23 22 21 20 19 19 18 19 20 20 20 19 18 17 18 19 19 19 18 18 17 16 16 16 16 16 18 17 16 19 21 21 20 20 20 19 17 17 21 26 26 24 23 25 26 28 30 31 32 34 34 35 35 34 33 31 29 26 25 25 25 26 27 27 28 28 29 30 30 27 23 21 22 24 25 24 24 23
26 25 24 24 23 23 22 21 21 20 19 19 19 19 18 17 18 18 17 17 17 18 18 19 20 20 19 15 10 6 8 16 19 18 18 16 16 18 20 20 20 21 20 16 8 4 11 18 24 26 26 26 28 29 30 31 31 32 32 33 33 33 33 32 29 27 26 26 26 26 26 26 26 27 27 29 29 28 24 20 19 21 23 23 22 22
24 23 22 21 21 20 20 19 19 19 19 19 19 18 16 15 15 16 17 18 19 19 19 19 20 19 19 16 12 8 11 18 20 19 18 16 15 16 18 18 20 21 22 19 14 9 7 8 18 27 28 28 28 28 29 29 30 31 32 32 33 33 34 32 30 29 28 29 28 27 26 25 25 25 26 27 28 27 24 21 17 17 19 20 21 22
21 20 19 19 19 19 18 18 19 19 19 18 17 16 15 16 17 19 21 21 20 20 19 19 19 19 19 19 18 17 19 20 19 18 19 17 16 17 19 20 21 22 22 21 20 18 14 13 19 25 27 27 27 27 28 28 29 30 31 31 32 33 34 32 31 29 29 30 30 28 26 25 24 24 25 26 27 26 24 21 17 14 15 17 20 21
19 18 17 17 18 18 18 18 19 18 18 16 15 15 17 19 22 23 24 23 21 20 20 20 20 20 20 19 20 21 21 20 20 19 20 20 20 19 20 21 22 22 22 21 21 21 19 21 21 22 23 25 26 26 26 27 28 29 30 31 32 34 34 33 32 31 31 31 30 29 26 25 24 24 25 26 26 25 23 21 18 15 14 16 19 21
17 16 17 17 17 18 18 19 18 18 17 16 17 19 21 23 24 25 24 23 22 21 21 21 21 21 21 21 21 21 22 22 22 22 23 23 22 21 20 20 21 21 20 20 19 18 17 19 21 20 19 22 24 26 25 26 27 28 30 31 32 33 33 33 32 32 31 31 30 29 27 26 25 24 24 25 25 24 22 21 18 16 14 15 17 19
16 16 17 17 17 18 18 18 18 18 18 19 20 21 22 23 24 25 25 24 23 22 21 21 21 22 22 22 22 23 24 25 27 27 27 26 24 22 20 19 20 20 19 19 19 18 16 17 19 20 19 18 19 23 26 27 28 29 30 32 32 33 33 33 32 31 30 29 29 29 28 27 26 25 25 24 23 22 21 19 17 15 14 14 15 17
16 16 17 17 18 18 18 19 19 19 19 20 21 22 23 24 24 25 25 24 23 22 22 22 22 22 23 23 24 25 27 29 30 30 29 28 27 25 22 20 20 20 19 19 19 19 18 17 17 18 18 17 16 19 23 27 28 28 29 30 31 32 32 32 31 29 27 28 28 29 29 28 27 26 25 23 22 22 20 18 17 17 17 17 16 15
16 16 17 17 18 18 18 19 19 19 19 20 21 22 23 24 25 25 24 23 22 22 22 23 24 26 26 27 27 28 29 30 31 30 29 28 28 26 23 22 21 21 21 21 20 20 19 15 12 11 11 16 19 21 24 25 26 26 27 29 30 30 30 30 28 26 26 27 28 30 30 29 28 27 26 25 24 24 23 23 22 21 22 22 21 19
16 16 17 17 17 18 18 18 19 19 20 21 22 23 23 24 24 23 22 22 22 22 24 26 27 28 28 29 29 29 29 29 29 29 28 27 26 26 25 23 23 23 23 23 22 21 19 16 13 10 9 13 18 22 24 25 25 26 27 28 28 28 27 26 25 25 26 27 29 30 29 28 28 27 26 25 25 24 24 25 25 24 24 24 23 22
16 17 17 17 17 18 18 19 19 20 21 22 23 23 23 22 22 21 21 21 22 23 25 26 27 27 27 27 28 28 28 29 28 28 27 26 25 25 25 24 23 23 23 24 23 22 20 19 18 18 18 17 17 20 22 24 25 26 26 24 24 25 26 25 26 26 27 28 28 28 27 27 26 26 25 24 24 23 24 24 25 25 24 22 21 21
17 17 18 18 18 18 19 20 21 22 22 23 23 22 22 21 21 21 22 23 23 24 25 25 25 25 26 26 27 27 27 27 27 27 26 26 25 24 24 24 24 23 23 23 23 22 21 20 20 20 20 20 20 21 22 24 26 26 25 22 22 25 27 27 26 26 26 26 26 26 26 26 25 24 24 23 23 24 24 25 25 25 23 21 19 18
17 18 18 19 19 20 20 21 21 22 21 21 21 20 21 21 21 22 23 23 24 24 24 24 24 24 25 26 26 27 27 27 26 26 26 25 24 24 23 23 23 23 23 23 23 23 22 21 21 20 20 20 20 19 20 24 26 25 24 23 24 25 25 25 24 23 23 24 25 26 26 26 25 24 24 24 24 25 26 26 25 23 22 20 19 18
18 19 20 20 21 21 21 21 21 20 20 20 20 20 21 21 22 23 23 23 23 23 23 23 22 22 23 24 26 27 27 28 27 26 25 25 23 23 22 23 23 24 24 23 22 22 22 22 21 21 21 21 20 20 20 23 24 25 24 24 23 19 16 19 22 23 24 25 26 27 27 26 25 25 25 25 25 26 26 26 25 23 21 20 19 19
20 20 21 21 21 21 21 20 19 19 20 20 20 21 22 23 24 24 23 22 22 23 23 22 22 22 22 23 24 26 27 28 28 27 25 24 23 22 22 22 23 24 24 23 22 21 22 21 21 22 22 21 20 19 20 21 22 23 24 25 23 19 16 18 22 24 25 26 26 26 25 25 25 25 25 25 25 25 25 25 24 22 21 20 19 20
20 20 20 20 19 19 18 19 19 20 20 20 21 21 23 23 24 23 22 22 22 23 23 22 21 20 19 21 23 24 25 26 26 26 25 24 23 22 21 22 23 23 23 23 23 22 21 20 21 22 23 22 21 20 20 21 21 22 23 24 23 22 21 22 23 24 23 23 23 23 24 25 25 25 24 24 24 24 24 24 23 22 20 20 19 20
19 19 19 19 19 19 19 19 20 20 20 21 21 22 23 23 23 22 22 22 21 22 21 21 19 18 18 20 21 22 23 25 25 25 25 26 25 23 22 22 22 23 23 23 23 23 23 22 22 22 22 22 21 20 21 20 20 20 22 23 23 22 22 22 22 22 21 21 22 24 26 26 25 23 21 21 21 22 23 23 21 20 19 19 19 20
19 19 19 19 19 19 20 20 20 20 20 20 21 21 22 22 22 22 21 21 20 20 20 20 19 19 19 20 20 20 21 23 24 25 25 26 26 24 23 23 23 23 23 23 23 22 22 23 23 23 22 20 19 19 20 20 20 19 20 21 22 21 20 20 20 21 22 23 24 25 26 25 22 20 19 19 20 20 21 21 20 19 18 18 19 20
19 19 19 19 20 20 20 20 20 20 20 20 21 21 21 21 21 20 20 20 20 20 20 20 20 20 20 20 20 20 20 21 23 24 25 25 25 25 24 24 24 24 23 22 21 21 21 22 22 22 22 21 19 18 19 20 20 20 19 19 20 19 19 20 21 23 24 25 26 26 25 23 19 18 18 17 17 17 18 19 19 18 17 17 18 20
19 19 20 20 20 20 20 20 20 19 19 20 20 21 21 21 20 20 20 20 20 20 19 19 19 19 20 20 21 21 21 21 22 22 23 23 24 24 25 26 26 26 24 23 22 21 21 20 19 18 18 20 20 19 20 21 21 21 20 19 19 18 18 20 22 24 25 26 26 26 25 23 21 20 18 15 15 15 17 18 18 18 17 18 19 20
20 20 20 19 19 19 20 20 20 19 19 19 20 21 21 21 21 21 21 20 19 18 18 18 18 19 20 21 21 21 21 21 21 22 22 22 22 23 24 25 26 25 24 23 23 22 21 20 18 16 14 14 16 18 19 20 20 21 20 19 18 17 17 18 20 23 24 25 25 25 25 23 22 20 17 14 14 14 15 16 17 18 18 19 20 21
20 20 20 20 19 19 19 20 19 19 19 20 20 20 20 20 21 20 20 19 18 18 18 18 18 18 19 20 21 21 21 20 20 21 21 22 23 23 23 24 23 22 21 20 19 18 17 15 15 15 16 14 12 13 16 17 18 19 18 18 18 17 17 18 20 22 24 24 24 23 22 21 20 18 16 14 12 12 13 14 15 17 19 21 21 22
Wind_Direction
319 321 325 328 329 328 328 330 332 333 332 333 335 335 336 336 336 336 336 336 336 337 337 337 337 337 337 337 337 336 334 333 331 329 328 328 327 327 326 326 326 325 325 324 324 323 322 322 321 320 320 320 320 320 318 317 315 313 311 310 308 305 303 300 296 293 291 289 287 285 283 284 286 289 293 295 297 298 298 298 298 297 296 294 294 292
323 325 328 330 331 330 328 330 332 333 332 332 332 333 333 332 332 331 332 332 333 334 334 334 334 334 334 334 334 333 332 331 329 328 328 327 327 326 326 326 326 326 326 325 325 324 323 322 321 320 320 319 320 320 319 317 315 314 313 311 309 308 306 302 298 295 293 291 288 285 283 282 283 286 290 292 294 295 296 297 297 297 296 295 294 293
327 329 330 331 331 330 328 329 330 330 329 329 328 328 328 327 326 325 326 326 327 329 329 330 329 329 329 330 330 330 329 328 327 327 327 328 328 327 326 325 325 326 326 325 325 325 324 323 321 320 320 319 320 319 318 318 318 317 317 315 313 312 310 306 303 300 297 296 294 290 286 282 281 283 287 290 292 293 294 296 296 296 295 294 293 292
329 330 330 331 331 328 326 326 326 326 326 325 325 325 325 324 322 321 321 321 322 323 324 325 325 324 324 324 325 326 325 324 324 325 326 327 328 327 326 325 325 325 325 325 324 324 323 322 321 320 320 319 319 318 317 318 319 319 319 318 316 315 314 311 309 307 304 302 298 294 289 285 282 282 285 288 290 292 293 294 295 295 294 292 291 290
329 329 329 330 328 325 323 323 323 323 323 323 323 323 323 322 320 320 319 320 320 321 322 322 322 322 321 321 321 321 321 321 321 321 322 324 326 326 325 324 324 324 324 324 323 323 322 321 320 319 319 318 317 316 315 316 316 316 316 317 317 317 317 316 315 314 312 306 299 295 293 290 286 284 284 286 289 290 291 292 293 294 293 291 289 287
326 327 327 326 323 320 319 320 321 322 323 323 322 322 321 320 319 319 319 320 321 321 321 321 321 320 320 320 320 319 319 319 318 318 319 320 321 322 322 322 322 322 322 322 322 321 321 320 319 318 317 316 315 313 312 312 313 312 312 313 313 315 316 317 317 316 313 308 302 297 296 296 294 290 287 286 287 288 288 290 291 292 292 290 288 285
322 322 322 321 318 316 316 317 318 320 321 321 321 321 320 319 319 319 319 319 320 320 320 319 319 319 319 319 319 319 319 318 318 317 316 316 316 317 318 319 320 320 320 320 320 319 319 318 317 316 315 314 313 312 311 310 310 309 309 308 309 310 311 313 315 315 315 312 308 302 298 298 298 296 292 289 287 286 286 287 289 290 291 289 287 284
318 317 318 317 315 314 314 314 316 318 320 319 320 321 321 321 320 319 319 319 320 320 319 318 318 318 318 318 318 318 318 318 317 316 315 315 315 315 316 316 317 317 317 318 317 317 317 316 315 315 314 313 312 312 311 310 309 308 307 306 306 306 307 309 311 313 314 314 312 308 303 299 297 296 294 292 289 286 286 286 287 288 289 289 287 284
312 311 311 311 311 311 312 313 315 318 319 318 318 318 320 320 320 320 320 321 320 320 319 318 317 317 317 317 317 317 316 315 314 314 314 313 313 313 314 314 314 314 315 315 315 315 314 314 313 313 312 312 311 311 311 310 309 308 307 305 305 304 305 306 307 308 310 312 312 311 308 304 299 295 293 293 293 290 287 286 286 287 288 288 286 284
306 306 306 306 307 308 309 311 314 318 320 318 317 316 317 319 320 322 322 322 321 321 320 318 317 317 316 316 316 316 315 313 312 311 311 311 311 311 312 312 312 312 312 313 312 312 312 312 312 311 311 311 311 310 310 310 309 308 307 306 305 304 304 304 304 305 306 308 309 310 309 307 303 299 295 294 295 295 292 288 286 285 286 286 286 284
303 304 304 305 307 309 310 311 314 317 320 320 319 319 320 321 322 323 322 321 321 322 321 319 317 316 316 315 315 315 314 312 311 311 310 310 310 310 311 310 310 310 311 311 311 311 311 311 311 310 310 310 310 310 310 310 309 308 307 306 305 304 304 303 303 303 303 304 305 307 308 307 305 303 299 296 295 296 296 293 290 288 286 285 285 283
301 304 306 308 311 312 313 314 316 319 322 323 324 324 325 325 325 322 319 318 319 320 320 318 317 315 314 313 313 313 312 311 310 310 310 311 311 312 312 311 311 311 311 310 310 310 311 311 310 309 309 309 309 310 310 310 310 309 308 307 306 305 304 303 302 302 301 301 302 303 304 305 305 304 302 299 297 296 297 298 296 292 289 286 284 283
303 306 309 311 313 315 316 318 320 322 324 326 326 325 323 324 323 321 316 315 316 317 317 316 315 314 313 312 311 311 311 310 309 309 309 310 312 313 313 311 311 311 310 309 309 310 310 310 309 308 308 308 309 310 310 311 310 309 308 307 306 305 304 303 302 301 300 299 299 300 301 302 303 303 302 301 299 299 299 299 298 296 292 287 284 282
309 312 313 313 314 316 317 319 320 321 322 323 322 320 318 319 319 319 316 315 315 316 315 313 312 312 313 313 312 312 311 310 309 309 309 309 311 312 312 310 309 309 308 307 307 307 308 308 307 307 307 307 308 309 310 310 309 308 307 306 306 305 304 303 302 300 299 298 297 297 298 299 300 300 301 301 301 301 300 300 299 297 294 289 285 281
314 315 314 313 313 314 316 317 318 318 318 318 318 317 316 316 317 318 317 315 315 316 315 313 311 311 311 312 313 314 313 312 310 310 310 309 309 311 311 308 307 307 306 305 304 305 306 306 305 305 306 306 307 308 309 308 307 306 306 306 305 304 303 303 301 300 298 296 295 295 295 296 297 298 298 299 300 301 301 300 298 296 294 290 286 282
312 312 311 310 310 311 313 314 315 314 315 315 315 315 315 315 316 316 315 313 314 315 314 313 312 311 310 310 312 314 315 313 312 310 310 308 308 309 309 307 305 305 305 303 303 304 306 306 305 305 305 305 306 307 307 306 305 305 305 304 304 304 303 303 302 300 298 296 294 293 293 293 294 295 295 296 297 298 299 299 298 297 294 291 287 283
306 307 306 306 307 308 310 312 311 311 312 313 314 313 313 312 312 312 311 310 310 310 310 309 309 310 310 310 310 312 314 314 312 310 308 306 306 307 307 305 303 303 303 302 301 302 304 305 305 305 305 305 306 306 305 304 304 304 304 304 304 304 304 303 302 301 299 296 294 292 291 291 291 292 293 294 295 295 296 297 297 296 294 291 288 285
302 302 303 303 303 305 308 309 309 310 311 312 313 313 312 311 309 308 306 305 305 305 305 305 304 303 304 305 305 307 311 313 312 309 306 303 303 305 306 304 302 301 301 300 300 301 302 303 304 304 304 305 305 305 305 304 303 303 304 304 305 305 305 305 303 302 300 297 294 292 290 289 289 289 290 291 292 292 293 295 295 294 293 291 288 287
299 299 300 300 301 302 305 306 307 309 310 311 312 312 311 309 307 305 303 302 301 300 301 302 301 299 297 296 297 301 308 312 311 308 304 300 300 302 304 304 302 301 300 299 300 301 302 303 304 305 304 305 305 305 305 304 303 303 303 304 305 306 306 305 305 304 302 299 296 293 290 288 287 287 287 288 289 289 290 292 293 294 293 291 289 288
296 295 295 297 299 300 301 302 303 305 306 307 307 306 306 305 303 302 302 303 302 301 301 300 299 296 293 290 292 298 308 312 310 304 298 296 297 300 303 304 303 301 300 300 300 301 303 304 304 305 305 306 306 305 304 303 303 302 303 304 304 305 306 306 306 307 306 304 300 296 292 289 287 285 285 285 286 287 288 289 291 292 292 291 289 288
292 291 291 292 294 295 296 298 299 301 302 303 302 301 301 303 302 302 304 306 306 305 304 301 297 294 291 290 294 301 309 311 307 299 295 294 297 301 303 304 303 301 300 300 302 303 304 305 305 305 305 306 307 306 305 304 303 302 302 303 304 305 306 307 308 310 310 309 307 302 297 292 288 285 283 282 283 284 285 287 289 290 290 290 288 286
289 289 291 290 288 287 289 292 295 299 302 303 301 300 303 306 307 307 308 308 307 305 302 298 294 292 292 293 297 303 307 307 301 295 293 295 298 301 303 304 303 301 300 300 303 305 306 306 306 305 305 305 306 306 305 304 303 303 303 303 304 306 308 310 312 313 314 314 313 310 305 298 292 286 282 280 280 280 282 284 286 288 289 288 287 285
291 290 291 289 286 284 287 292 298 304 308 309 307 306 306 307 307 306 306 304 301 298 295 293 292 294 296 298 300 302 304 304 300 296 294 293 296 300 303 304 303 300 299 301 304 306 307 306 306 305 305 305 306 306 305 305 305 304 303 303 305 307 311 313 315 315 315 315 316 315 314 308 300 291 283 279 277 277 279 281 284 286 287 287 286 284
293 290 289 288 290 293 299 304 308 311 312 312 311 309 308 306 304 302 300 298 296 294 292 294 296 298 298 299 299 300 302 304 304 302 296 293 294 298 301 303 301 299 299 302 304 306 306 306 305 305 305 306 306 306 306 306 306 305 304 304 306 309 312 314 314 314 314 314 315 317 318 316 311 302 290 281 276 275 276 278 282 284 285 286 286 286
291 289 290 294 299 304 307 309 309 310 311 311 310 308 307 306 304 302 300 298 296 295 296 297 298 297 297 298 298 298 300 300 301 300 295 294 294 295 299 301 301 300 301 303 305 306 305 305 305 306 306 306 307 307 307 307 307 307 306 306 308 309 311 312 313 313 312 312 313 315 317 319 318 313 303 288 278 273 273 275 279 281 283 286 290 291
291 292 297 302 306 307 307 307 307 307 307 307 307 307 307 307 306 304 303 302 303 304 303 300 295 293 294 295 296 296 298 298 299 298 294 293 293 294 298 301 303 303 303 304 305 306 305 304 304 306 306 306 307 308 309 310 311 311 309 308 307 308 309 310 311 311 311 311 311 313 316 318 320 319 314 302 286 275 271 272 275 279 282 287 293 295
296 299 304 307 308 308 307 306 306 306 306 305 305 305 306 307 307 306 305 308 312 311 305 301 297 294 295 295 295 296 299 300 300 300 298 296 294 295 299 304 306 305 303 303 304 304 305 304 304 304 305 306 307 309 311 312 312 311 308 306 306 307 308 309 309 310 310 310 311 312 314 316 318 320 321 315 300 282 273 271 273 276 280 286 292 294
307 308 309 309 308 307 307 306 306 306 306 305 305 305 306 307 306 305 305 309 311 308 303 300 300 300 300 300 300 300 301 301 302 304 307 306 301 298 301 305 306 304 304 304 305 305 304 303 302 302 303 305 307 309 310 309 307 306 305 305 306 307 309 309 309 308 309 310 310 311 313 315 317 319 321 321 313 296 278 271 270 273 278 282 286 289
312 312 310 309 308 307 307 306 306 307 308 307 307 306 306 305 303 300 300 304 306 305 304 304 305 305 306 305 304 304 302 301 304 310 315 314 305 300 302 304 305 305 307 308 308 307 304 303 302 302 303 305 306 306 305 304 303 303 304 305 307 309 309 309 307 306 307 308 309 310 312 315 316 317 319 321 320 312 293 276 269 270 273 275 279 283
314 313 312 310 309 308 308 309 310 312 312 311 309 309 308 305 300 297 297 302 306 308 307 307 307 307 307 307 306 304 301 302 307 313 316 311 303 299 302 304 306 308 311 312 310 307 304 304 303 303 303 305 305 305 304 303 303 304 305 306 308 309 309 308 307 305 306 307 308 309 311 315 317 317 317 320 322 321 311 290 273 266 265 268 272 277
316 315 313 311 311 311 312 314 316 317 317 315 314 313 311 308 304 303 305 311 313 312 308 306 304 304 304 305 305 301 300 303 307 311 312 304 296 296 303 306 307 309 310 309 307 301 304 305 305 305 306 306 305 304 303 303 304 304 305 306 307 307 307 307 306 305 306 308 309 310 311 315 317 318 317 318 321 323 321 308 284 265 257 259 265 271
316 314 313 312 313 315 317 318 318 318 317 317 317 315 313 310 309 311 315 316 313 309 304 301 299 299 298 297 295 292 296 301 305 309 309 303 298 299 305 308 308 307 307 303 297 292 297 301 304 304 305 305 304 303 303 303 303 304 305 305 305 305 306 306 305 305 307 310 312 312 312 315 318 319 318 318 319 321 323 318 299 272 254 253 258 265
317 316 315 315 316 318 318 318 318 318 317 316 314 312 311 310 311 313 313 313 310 305 301 298 297 296 295 294 292 292 293 297 302 308 311 309 307 306 307 307 307 306 306 302 296 292 290 291 297 301 303 303 302 302 301 302 302 303 304 303 303 303 304 304 304 305 308 310 312 313 312 314 318 321 320 318 318 319 320 320 312 291 266 256 256 260
319 318 317 318 319 320 319 319 318 318 316 313 310 308 308 309 311 312 313 313 311 306 302 298 296 296 297 297 296 295 295 297 301 305 309 310 307 305 305 305 305 305 304 302 299 295 292 291 293 297 299 301 301 300 299 299 300 301 302 302 301 301 301 302 303 305 308 310 312 312 311 313 318 321 321 319 318 319 320 320 316 305 286 269 262 259
320 319 319 320 320 320 319 318 317 315 312 308 305 304 305 307 310 313 314 315 313 310 305 301 299 298 299 299 299 298 297 298 300 302 303 304 303 302 302 301 301 302 301 298 297 296 293 292 292 294 296 299 300 299 299 299 300 301 302 301 300 299 300 301 303 305 308 310 311 311 311 313 317 321 322 320 319 319 320 320 319 313 300 284 272 263
320 319 319 319 319 318 317 315 313 311 308 305 304 304 306 308 311 313 314 314 313 310 306 304 301 300 298 298 297 296 295 296 297 298 300 299 299 298 297 295 296 297 295 294 293 293 292 292 293 293 294 295 298 300 301 302 302 302 301 301 300 301 301 303 304 306 307 309 309 310 310 312 315 320 322 320 318 319 319 322 324 325 320 309 293 276
319 318 318 318 317 316 314 313 311 309 307 306 306 306 307 309 310 311 313 313 312 309 307 304 303 301 298 297 294 292 292 294 296 298 300 299 297 293 291 290 291 291 289 289 289 290 291 291 293 293 293 292 294 298 301 303 304 303 300 300 301 302 302 304 305 306 307 307 307 308 310 311 314 318 321 320 320 320 321 322 325 329 331 330 322 306
318 317 317 316 315 314 313 312 310 308 307 306 306 306 307 308 309 310 311 310 309 307 305 304 304 304 304 303 300 298 297 298 299 301 302 301 298 293 288 287 288 288 286 284 285 286 288 289 290 291 292 293 293 295 297 300 301 300 299 299 300 301 302 303 305 306 305 305 305 307 309 312 315 319 322 323 324 324 323 324 325 327 330 333 332 327
315 315 315 315 314 313 312 310 308 307 306 305 305 305 306 307 307 308 308 307 305 304 304 304 305 306 307 307 306 305 303 303 303 304 305 304 301 297 292 288 287 287 287 286 284 283 283 283 283 285 288 292 293 294 296 297 296 296 298 300 301 301 301 302 304 304 303 303 304 305 308 312 315 319 322 325 326 326 324 324 325 327 329 330 331 330
313 312 312 312 312 311 309 307 306 305 305 305 305 305 306 307 307 306 306 305 304 304 306 307 307 306 306 305 305 305 305 306 307 308 309 308 307 303 298 291 287 287 288 288 287 284 281 280 280 281 282 286 289 291 294 294 295 296 298 299 300 300 300 301 302 301 301 302 303 304 306 310 313 316 319 322 323 323 322 322 323 324 326 326 325 323
311 310 310 310 310 308 306 305 304 305 305 305 305 305 307 307 307 307 307 307 306 307 308 309 308 307 306 305 305 305 306 307 309 311 312 312 311 309 303 296 291 288 288 289 289 287 283 281 280 281 282 284 286 288 290 291 293 295 296 295 294 295 297 298 299 300 301 302 303 304 306 308 310 313 316 318 319 319 319 318 318 320 323 323 320 317
308 308 308 308 307 306 305 305 305 306 306 306 305 306 307 307 307 307 307 307 307 308 308 309 308 307 307 307 307 308 309 310 311 313 314 315 315 313 308 303 298 295 292 289 289 288 286 283 283 283 284 285 287 289 290 292 294 295 295 294 294 294 296 297 299 300 300 301 302 303 304 306 308 311 313 315 316 317 317 316 316 317 318 318 317 315
305 304 305 305 305 305 305 306 306 307 309 309 307 307 306 306 306 306 306 305 305 306 306 306 306 305 305 306 308 309 311 312 314 315 316 317 317 316 313 310 307 303 298 291 288 288 288 287 286 286 286 287 287 287 289 292 294 296 295 294 294 294 295 298 300 301 301 300 301 302 303 305 309 312 314 315 314 314 314 314 315 316 317 316 315 315
301 302 302 302 303 305 306 307 307 308 310 309 308 307 306 307 308 307 305 303 303 303 304 304 304 304 304 305 307 310 311 313 315 317 318 318 318 317 315 313 311 307 302 292 288 288 289 291 290 289 289 288 286 285 286 289 292 295 297 297 295 292 288 291 296 299 300 300 300 301 303 307 311 314 315 314 313 312 311 312 312 314 316 318 318 318
299 301 301 301 303 304 304 306 307 308 308 307 306 306 306 308 308 307 304 302 301 302 302 303 303 304 304 306 308 310 312 313 315 316 318 319 319 317 315 313 311 308 303 296 290 287 286 287 290 293 293 291 287 284 285 287 290 293 296 299 299 295 290 290 293 295 296 298 300 302 304 308 311 313 313 311 310 309 309 309 311 314 317 320 320 321
299 300 301 301 302 303 304 305 306 306 306 305 305 305 307 308 308 307 305 302 301 301 301 302 303 302 302 304 307 310 311 313 314 315 316 317 318 318 316 314 312 309 305 300 296 292 288 286 287 290 292 291 288 285 284 285 288 292 297 302 304 302 299 297 297 296 296 297 299 301 303 307 310 310 308 307 307 307 308 308 311 315 318 321 322 323
299 300 301 301 303 303 303 305 305 305 303 302 303 305 307 308 308 307 305 303 301 301 302 304 303 301 300 302 304 306 308 310 311 313 314 316 316 317 317 316 314 311 308 303 300 297 293 290 288 287 286 286 287 286 286 286 288 291 296 303 308 308 305 303 302 302 301 300 300 302 305 307 308 306 305 306 306 306 307 309 311 315 319 321 323 326
300 300 301 301 302 302 302 303 303 302 301 301 303 305 306 307 307 306 303 302 302 302 303 304 303 302 301 301 301 302 303 305 307 309 311 313 314 316 317 317 316 314 311 307 303 300 296 293 290 286 281 278 278 281 285 287 289 291 296 303 309 311 310 309 310 311 309 308 308 308 309 307 304 302 303 304 304 305 305 307 311 315 319 322 325 328
300 299 299 300 299 299 300 300 300 300 299 298 301 304 304 305 305 304 301 301 301 300 301 301 301 301 301 301 301 302 302 303 303 305 307 310 312 315 317 318 318 317 315 313 311 308 305 302 297 291 285 278 273 273 278 282 287 292 297 304 309 313 314 315 316 317 317 315 315 314 313 309 306 304 302 299 298 300 302 305 308 313 318 322 326 330
300 299 298 298 297 297 297 298 298 298 297 297 298 300 302 303 303 302 300 299 298 297 297 299 300 300 300 301 301 302 302 302 303 303 305 308 312 315 316 317 317 317 317 317 317 316 316 313 309 304 297 288 279 274 275 280 287 294 300 305 310 314 316 317 319 321 321 319 318 317 315 313 311 308 302 295 293 295 299 303 307 312 316 323 328 331
301 300 298 297 296 295 295 296 297 296 295 295 296 297 299 300 301 301 301 299 298 297 298 299 300 299 298 299 300 301 301 300 300 302 305 309 313 315 315 315 316 317 317 317 317 317 317 316 314 311 308 303 295 288 286 288 293 299 303 306 310 314 317 318 319 319 319 318 318 317 317 315 312 308 303 298 296 297 300 303 307 311 317 325 330 334